Temperature
19 19 18 18 18 18 18 18 18 18 18 18 18 18 18 18 18 18 18 18 18 18 18 18 18 18 18 18 18 18 18 18 18 18 17 17 17 17 17 17 17 17 17
18 18 18 18 19 18 18 18 19 19 18 18 18 18 18 18 18 18 18 18 18 18 18 18 18 18 18 18 18 18 18 18 18 18 18 17 17 17 17 17 17 17 17
18 18 18 18 18 18 18 18 18 18 18 18 18 18 18 18 18 19 18 18 18 18 18 18 19 19 19 19 18 18 18 18 18 18 18 18 17 17 17 17 17 17 17
18 17 17 17 17 17 17 17 17 18 18 18 18 18 17 17 18 18 18 18 18 18 18 18 18 19 19 19 19 18 18 18 18 18 18 18 18 18 18 17 17 17 17
17 17 17 17 17 17 17 17 17 17 17 17 17 17 17 17 17 17 17 17 17 18 18 18 18 18 19 19 19 19 18 18 18 18 18 18 18 18 18 18 18 18 18
17 17 17 17 16 16 16 16 16 16 16 16 16 17 17 17 17 17 18 18 18 18 18 18 17 17 18 18 19 19 18 18 18 18 18 18 18 18 19 18 18 18 18
17 17 16 16 16 16 16 16 16 16 16 16 16 16 17 17 18 18 18 18 18 18 18 18 17 17 17 18 19 19 19 18 18 18 18 18 18 19 19 18 18 19 18
17 17 16 16 15 15 15 15 15 15 15 15 15 15 16 17 18 19 19 19 19 18 18 17 17 17 17 18 19 19 19 19 18 18 18 18 18 18 19 19 18 18 18
17 17 16 16 15 15 15 15 15 15 14 14 15 15 15 16 17 18 18 19 18 18 18 17 17 17 17 17 18 19 19 19 18 18 18 18 18 18 18 19 19 18 18
18 17 17 16 16 16 16 15 14 15 14 14 14 14 15 15 15 16 17 18 18 18 18 17 17 17 17 17 18 18 18 18 18 18 18 17 17 18 18 18 18 18 17
18 17 17 16 16 16 15 15 15 15 15 14 14 14 14 15 15 15 16 16 17 17 18 18 18 17 17 17 18 18 18 18 17 17 17 17 17 17 17 17 17 17 17
18 18 17 16 16 16 15 15 15 14 14 14 14 14 14 14 14 15 15 16 16 17 17 18 18 17 17 17 17 17 17 17 17 17 17 17 17 17 17 16 16 16 16
18 18 17 17 17 16 16 16 14 14 14 14 14 14 14 14 14 14 15 15 16 17 17 17 17 17 17 17 17 17 17 17 16 16 16 16 16 16 16 16 16 16 16
17 17 17 17 17 16 16 15 14 14 13 14 14 14 14 14 14 14 14 15 15 16 17 17 17 17 16 17 16 16 16 16 16 16 16 16 16 16 16 16 16 16 16
16 16 16 15 15 16 15 15 15 14 14 14 14 14 14 14 14 14 14 14 15 15 15 16 16 16 16 16 16 16 16 16 15 15 15 15 15 15 15 15 15 15 15
15 15 14 14 14 15 15 14 14 14 14 14 14 14 14 14 14 14 14 14 15 15 15 15 16 15 15 15 15 15 15 15 14 14 14 15 15 15 14 14 14 14 14
14 14 14 14 14 14 14 14 14 14 14 14 14 14 14 14 14 14 14 14 14 15 15 15 14 14 14 14 14 14 14 14 14 14 14 14 14 13 13 13 13 13 14
14 14 13 13 13 13 14 14 14 14 14 14 14 14 13 13 14 14 14 14 14 14 14 14 14 13 13 13 13 13 13 14 14 13 13 12 12 13 13 13 13 13 13
12 13 13 13 13 13 13 13 14 13 14 14 14 14 13 13 14 14 14 14 14 14 14 14 13 13 13 12 12 13 13 12 12 12 12 12 12 12 12 13 13 13 13
11 11 12 12 12 12 13 13 13 13 13 14 14 14 13 13 13 14 14 13 13 13 13 13 13 12 12 11 12 12 11 12 11 12 12 11 11 12 12 12 12 12 13
10 10 10 11 11 11 12 12 13 13 13 14 14 13 13 13 13 14 13 13 12 13 13 12 12 11 11 11 11 11 11 11 11 11 11 11 11 11 11 11 12 12 12
10 10 10 10 10 11 11 12 12 12 13 13 13 13 13 13 13 13 13 12 12 12 12 12 11 11 11 11 11 11 11 11 11 11 11 10 11 11 11 11 11 11 11
10 10 10 10 10 10 11 11 12 12 13 13 13 13 13 13 13 13 12 12 12 12 12 12 11 11 11 11 11 11 11 12 12 11 11 10 11 11 10 10 10 10 10
10 10 10 10 10 10 10 10 11 12 12 12 13 13 13 13 12 12 12 12 12 11 11 11 12 11 11 11 11 12 12 12 12 11 11 11 11 11 10 10 10 9 9
10 10 10 10 10 10 10 10 11 11 11 12 12 12 12 12 12 12 12 12 12 11 11 11 12 11 11 11 12 12 12 12 12 11 11 11 10 10 10 10 9 9 9
9 9 10 10 10 9 9 10 10 10 10 11 11 12 12 12 12 12 12 12 12 11 11 11 11 11 12 12 12 12 12 12 12 12 12 11 11 10 9 9 9 9 8
Wind_Speed
4 5 2 2 5 6 2 2 2 3 4 4 6 6 6 7 8 9 7 15 20 22 22 21 21 22 21 21 22 22 23 23 23 25 25 26 26 26 25 24 22 22 22
4 4 5 4 4 4 3 2 5 5 6 6 6 6 6 8 8 10 12 14 20 23 23 22 21 21 22 22 23 23 23 24 23 24 25 25 26 26 27 26 26 25 25
4 4 5 5 5 5 5 4 5 5 6 6 7 8 8 8 9 10 13 13 13 21 25 25 23 22 23 23 23 23 24 24 24 24 25 25 26 26 27 27 27 27 27
4 3 4 4 3 4 3 5 6 6 6 6 7 7 8 8 11 10 11 11 12 13 20 26 24 23 23 23 23 23 24 25 24 24 25 26 26 26 26 27 28 27 27
3 3 4 4 4 4 5 6 5 5 6 6 7 7 7 8 9 11 10 10 11 12 12 17 24 24 23 24 24 23 24 25 24 24 25 26 26 26 27 28 29 28 27
1 1 3 3 2 3 4 3 4 5 6 7 10 10 7 8 8 8 10 10 9 12 14 13 14 19 24 23 24 24 24 25 24 24 25 26 27 29 30 30 29 29 28
2 0 4 4 5 5 5 6 6 7 7 7 7 8 9 11 11 10 10 10 10 9 12 12 12 13 14 22 22 22 24 25 25 25 25 27 28 29 29 30 29 29 29
2 3 3 3 5 5 6 6 6 6 7 7 7 9 8 8 8 9 9 9 9 7 8 9 10 10 12 11 15 22 23 23 24 24 26 27 26 26 27 29 29 30 29
2 1 2 4 5 6 5 6 6 8 6 6 6 6 6 6 7 6 6 4 3 4 6 7 9 11 14 13 12 17 21 23 23 23 24 24 23 23 24 26 28 29 29
4 3 3 4 4 4 6 7 6 5 6 7 7 7 8 10 10 9 8 6 5 5 6 6 8 9 12 11 11 10 16 20 21 21 21 19 19 20 22 24 26 27 28
6 6 6 4 4 5 7 6 7 7 5 7 7 7 9 10 10 8 9 7 5 5 6 8 7 7 7 9 7 9 13 15 17 16 15 13 13 15 17 21 25 27 28
6 8 7 5 4 5 5 6 7 8 7 7 7 7 8 8 9 8 9 8 7 7 8 7 8 7 6 5 5 9 9 8 6 5 4 3 4 5 6 10 15 19 22
4 5 5 4 3 5 5 6 8 8 8 8 7 7 8 8 9 9 9 8 7 6 4 3 4 3 4 8 11 16 14 13 12 10 8 7 6 7 7 6 4 3 4
3 3 3 3 5 6 7 7 7 8 7 6 9 9 9 9 8 8 8 9 8 6 4 3 1 5 6 8 13 16 13 13 13 12 12 12 12 13 14 14 14 14 13
8 6 3 4 6 6 7 7 7 8 6 7 8 9 9 9 8 8 8 9 8 7 5 3 1 5 7 7 10 13 11 13 15 15 15 15 15 17 18 18 18 19 18
9 10 9 7 7 7 7 8 8 7 6 7 7 8 8 8 7 7 8 9 9 8 5 2 2 5 9 10 14 14 14 17 17 17 17 17 18 18 19 19 19 19 18
6 8 9 9 9 9 9 8 9 8 7 6 7 8 8 8 5 5 5 7 8 7 7 2 3 7 11 12 11 11 13 13 14 19 19 20 19 19 19 19 19 19 18
8 6 8 8 10 11 11 10 10 9 7 6 6 7 8 7 6 5 5 6 7 7 6 7 6 6 9 11 11 11 9 12 13 18 20 20 20 20 19 19 20 20 20
11 9 7 8 9 10 12 12 10 9 8 6 5 6 6 6 5 4 4 6 6 5 6 9 8 7 7 9 11 11 11 9 11 16 19 19 19 19 19 19 20 20 19
12 11 9 8 9 11 12 13 12 10 8 6 5 5 5 3 4 4 3 5 5 1 7 10 11 9 8 8 9 11 10 8 8 11 13 15 18 20 19 18 19 19 19
14 12 11 9 7 9 11 12 12 12 9 7 5 2 2 6 8 6 4 4 3 3 7 10 10 10 8 8 7 6 9 9 9 9 10 9 9 9 12 15 16 17 19
12 11 10 9 8 8 11 15 14 11 7 6 3 3 7 7 9 11 11 10 8 7 9 10 10 10 8 6 4 7 8 10 7 6 8 8 8 8 7 9 11 15 16
12 11 9 9 8 7 9 12 14 10 8 6 4 5 6 8 8 8 8 9 10 10 10 9 11 9 7 6 6 7 8 8 7 7 8 9 9 8 6 9 12 13 13
10 10 10 9 8 8 7 9 10 8 8 6 5 6 8 9 7 8 7 8 8 6 7 7 8 7 6 7 8 7 8 8 7 7 9 8 8 8 7 7 11 13 12
10 9 9 10 9 6 2 6 6 4 7 7 6 7 9 9 11 9 8 10 9 8 11 13 12 11 10 8 7 8 9 8 6 5 6 6 8 8 5 4 8 10 9
10 10 10 9 9 5 5 6 7 3 5 5 4 6 11 12 12 9 8 8 9 9 9 10 8 9 8 9 10 5 3 6 7 4 3 5 8 6 4 4 5 8 7
Wind_Direction
241 269 282 279 274 273 232 196 264 270 266 271 268 273 284 288 298 295 271 205 201 204 208 213 217 222 224 227 227 226 227 227 223 222 222 222 220 218 218 218 218 216 216
221 248 266 265 260 279 291 256 248 245 247 249 257 267 277 279 270 259 253 243 218 210 211 214 218 225 225 224 226 225 224 225 225 223 223 224 221 219 220 219 218 217 216
230 241 254 261 267 272 265 254 248 250 258 261 253 245 248 252 255 255 248 241 234 220 214 214 215 221 225 222 222 223 220 221 224 221 219 221 221 221 221 222 222 220 217
219 236 253 253 247 246 237 245 247 252 256 261 260 248 240 238 243 245 247 242 240 242 224 217 216 217 223 222 218 219 217 217 220 219 216 216 219 222 223 224 224 224 220
231 220 237 228 224 224 223 236 228 236 258 264 268 261 247 242 244 246 243 238 229 227 237 217 214 218 221 222 216 215 216 217 218 218 215 214 217 221 224 225 224 224 221
260 50 302 294 287 286 271 261 272 250 252 262 272 274 268 261 252 244 246 242 226 222 225 225 218 223 223 222 216 212 215 217 216 217 218 217 217 219 223 223 223 222 221
288 62 284 334 322 299 323 327 311 300 292 281 278 277 261 254 248 237 235 237 229 216 217 215 220 224 222 221 217 213 215 218 217 216 219 222 222 222 223 223 223 221 220
250 285 340 338 313 327 306 280 279 279 287 293 295 297 291 278 258 249 237 227 228 224 216 205 209 217 219 214 213 214 215 218 221 221 223 226 226 225 223 223 224 223 222
214 292 338 312 313 305 301 326 307 287 288 292 286 286 297 295 308 305 321 302 239 227 227 221 209 213 218 221 216 212 214 217 221 225 229 232 232 231 230 228 227 225 223
213 204 229 261 276 291 298 288 292 321 308 295 286 278 277 285 291 292 290 280 255 237 230 236 229 213 207 210 211 204 210 220 225 227 231 235 236 234 232 232 230 227 224
213 206 205 213 249 267 272 289 307 295 288 288 292 298 300 298 288 279 281 279 276 249 227 220 224 217 201 205 206 197 196 209 220 228 232 239 244 241 236 232 232 231 228
204 199 189 188 230 262 288 301 294 290 281 279 281 282 283 286 288 285 279 272 269 266 238 215 210 212 200 174 145 116 129 136 159 171 179 216 241 244 240 231 231 232 233
235 184 160 151 244 277 282 276 276 277 276 277 282 284 283 282 287 293 294 286 270 266 264 220 197 172 137 111 107 101 96 101 106 108 105 98 88 82 80 80 94 142 205
309 71 127 190 233 252 266 271 279 279 285 300 296 288 284 281 275 275 278 285 285 277 258 243 122 98 96 104 119 109 103 103 104 102 97 91 86 82 78 75 75 76 76
336 333 276 228 241 250 257 268 273 275 285 287 286 286 285 283 276 269 266 261 260 271 270 232 160 97 107 112 120 107 103 100 98 95 94 92 88 84 81 78 76 74 73
345 331 314 288 266 260 257 257 268 270 280 282 283 281 283 283 277 270 262 258 250 242 246 212 158 134 124 114 101 99 100 98 95 96 94 92 90 86 84 82 80 79 77
325 323 308 290 277 267 261 258 262 269 272 286 296 297 303 306 308 297 281 263 253 237 226 175 98 121 119 116 110 109 108 103 101 99 98 95 92 89 87 85 83 80 78
299 300 308 297 282 275 266 261 262 269 275 283 291 297 306 317 321 316 313 288 265 237 196 153 132 124 121 118 118 115 113 111 108 105 104 100 96 92 89 86 83 80 77
298 301 304 309 302 287 277 269 261 259 261 268 282 294 303 314 320 333 327 311 288 249 177 147 139 129 124 123 117 112 112 115 113 113 105 101 99 95 90 87 84 81 78
277 285 292 299 306 304 287 274 266 255 253 256 262 270 287 320 347 340 350 332 313 235 147 138 136 134 131 125 124 126 126 130 127 118 106 107 103 94 90 88 85 81 77
266 263 264 269 287 305 297 292 277 260 246 245 248 245 80 83 67 42 47 22 15 88 124 129 132 133 134 134 136 137 134 133 125 129 129 131 121 107 96 86 84 83 80
257 254 253 257 261 280 309 313 296 270 253 244 223 149 141 132 102 79 67 55 57 92 116 126 132 137 133 132 131 141 144 142 141 161 145 134 118 105 96 92 97 93 89
253 250 250 258 259 258 274 284 278 271 255 236 190 172 179 143 136 117 97 78 65 79 101 122 134 136 143 163 172 177 163 146 137 150 133 118 110 105 109 123 128 118 110
254 251 252 258 268 278 279 258 255 261 261 235 186 163 139 150 151 145 131 100 77 74 118 123 127 132 151 185 201 180 142 128 129 132 129 127 129 126 127 140 152 142 131
259 256 255 248 253 257 260 239 220 255 265 243 197 160 145 145 152 150 128 115 103 91 96 113 122 129 131 128 138 129 131 137 144 144 141 131 138 134 139 148 172 171 158
272 257 248 243 245 226 162 186 182 200 270 272 225 166 152 143 151 149 138 133 127 127 128 124 121 122 109 85 71 84 137 160 151 136 127 127 144 141 146 162 168 184 195
Height
1522 1523 1524 1524 1525 1526 1526 1525 1525 1525 1525 1525 1526 1526 1527 1528 1529 1529 1530 1530 1530 1531 1531 1533 1533 1535 1536 1536 1537 1539 1541 1544 1547 1550 1553 1555 1557 1559 1561 1563 1565 1566 1568
1519 1519 1520 1520 1521 1522 1522 1521 1520 1521 1521 1520 1520 1520 1520 1521 1522 1523 1524 1524 1524 1525 1525 1527 1528 1529 1531 1532 1533 1534 1536 1539 1542 1545 1548 1550 1552 1555 1557 1559 1560 1562 1564
1515 1516 1516 1516 1516 1517 1517 1516 1516 1516 1515 1515 1514 1514 1514 1514 1515 1515 1516 1517 1518 1519 1520 1521 1522 1523 1525 1527 1528 1530 1531 1534 1536 1540 1543 1546 1549 1551 1553 1555 1556 1557 1559
1513 1513 1513 1512 1512 1512 1512 1512 1511 1511 1511 1510 1510 1509 1508 1508 1508 1508 1509 1509 1510 1512 1514 1515 1516 1517 1519 1521 1522 1524 1526 1529 1532 1534 1538 1541 1544 1546 1548 1550 1552 1553 1555
1511 1511 1510 1510 1510 1509 1509 1509 1508 1508 1507 1507 1506 1505 1505 1504 1503 1503 1503 1503 1504 1505 1507 1509 1510 1511 1513 1515 1517 1518 1520 1523 1526 1529 1532 1536 1539 1541 1543 1545 1547 1549 1550
1510 1509 1509 1509 1508 1508 1508 1507 1506 1505 1504 1503 1502 1501 1500 1500 1499 1499 1498 1498 1498 1499 1500 1501 1503 1504 1506 1509 1511 1513 1515 1518 1521 1524 1528 1531 1533 1535 1538 1540 1542 1544 1545
1508 1507 1506 1506 1505 1505 1504 1503 1503 1501 1500 1500 1498 1496 1494 1494 1493 1493 1492 1492 1492 1493 1494 1494 1496 1498 1500 1502 1505 1507 1510 1513 1515 1518 1522 1525 1528 1530 1532 1534 1535 1537 1539
1505 1505 1504 1502 1502 1501 1500 1500 1499 1497 1496 1497 1495 1493 1490 1490 1488 1488 1487 1486 1487 1488 1488 1488 1490 1491 1493 1496 1498 1501 1504 1507 1509 1512 1516 1519 1521 1523 1525 1526 1528 1530 1532
1502 1502 1500 1499 1498 1497 1496 1495 1494 1493 1492 1492 1492 1491 1488 1484 1484 1484 1483 1482 1482 1482 1483 1484 1484 1486 1487 1489 1491 1494 1497 1501 1503 1506 1509 1512 1514 1516 1517 1518 1520 1522 1524
1499 1498 1497 1495 1494 1493 1492 1491 1491 1490 1488 1487 1487 1487 1486 1484 1482 1479 1479 1479 1478 1478 1477 1478 1479 1481 1482 1483 1485 1487 1491 1495 1498 1501 1504 1505 1507 1508 1509 1510 1511 1513 1515
1495 1494 1493 1491 1491 1490 1489 1488 1486 1485 1484 1482 1482 1481 1480 1479 1478 1477 1475 1474 1474 1474 1473 1473 1474 1475 1477 1478 1480 1482 1485 1488 1492 1495 1497 1499 1500 1501 1501 1502 1503 1505 1507
1491 1490 1489 1488 1487 1486 1485 1484 1483 1482 1480 1479 1478 1477 1476 1475 1474 1473 1471 1470 1469 1469 1469 1469 1469 1470 1472 1473 1475 1478 1480 1483 1486 1489 1491 1493 1494 1494 1494 1495 1496 1498 1500
1488 1487 1486 1485 1484 1483 1482 1480 1479 1479 1477 1475 1474 1472 1471 1470 1469 1468 1467 1466 1465 1465 1465 1465 1466 1467 1468 1469 1470 1473 1476 1479 1482 1484 1485 1487 1488 1488 1489 1490 1491 1492 1494
1484 1483 1481 1481 1480 1479 1478 1477 1476 1475 1473 1471 1468 1466 1464 1463 1463 1462 1462 1462 1461 1461 1461 1462 1462 1463 1464 1465 1467 1469 1473 1475 1477 1479 1480 1482 1483 1484 1484 1485 1487 1488 1489
1477 1478 1477 1477 1476 1475 1474 1473 1472 1470 1468 1465 1463 1461 1460 1458 1456 1455 1455 1456 1457 1456 1456 1457 1459 1460 1460 1462 1464 1466 1469 1472 1473 1475 1477 1478 1480 1480 1481 1482 1483 1484 1485
1471 1470 1471 1471 1471 1471 1471 1469 1468 1466 1463 1461 1459 1457 1456 1453 1451 1449 1448 1449 1450 1451 1451 1452 1453 1454 1455 1458 1460 1463 1467 1469 1471 1473 1475 1477 1478 1479 1480 1481 1482 1483 1484
1466 1465 1464 1464 1465 1465 1466 1465 1464 1462 1459 1456 1455 1454 1453 1450 1447 1445 1443 1442 1442 1444 1445 1447 1449 1450 1452 1454 1458 1461 1465 1468 1470 1472 1474 1476 1477 1479 1480 1481 1482 1483 1483
1459 1459 1458 1457 1457 1458 1459 1460 1459 1457 1455 1452 1451 1450 1449 1448 1445 1442 1440 1438 1436 1437 1439 1441 1444 1447 1450 1453 1457 1460 1464 1467 1469 1472 1474 1476 1478 1480 1481 1482 1482 1482 1483
1449 1449 1450 1450 1449 1450 1451 1453 1453 1452 1450 1448 1447 1447 1446 1445 1442 1439 1436 1433 1431 1431 1434 1436 1440 1444 1448 1452 1456 1460 1464 1467 1470 1472 1475 1477 1479 1481 1482 1483 1483 1483 1483
1441 1440 1440 1441 1441 1441 1443 1445 1446 1446 1445 1443 1443 1443 1443 1442 1440 1437 1434 1430 1428 1428 1430 1433 1437 1442 1447 1451 1455 1459 1463 1467 1470 1472 1475 1478 1480 1482 1484 1484 1485 1485 1486
1436 1433 1432 1434 1435 1434 1435 1437 1439 1440 1440 1439 1438 1439 1439 1439 1438 1436 1433 1430 1428 1427 1429 1431 1435 1440 1445 1450 1455 1459 1462 1467 1470 1473 1475 1479 1482 1484 1486 1487 1487 1487 1487
1431 1429 1428 1428 1429 1428 1428 1429 1431 1433 1434 1435 1434 1435 1436 1437 1436 1435 1433 1431 1430 1429 1429 1432 1435 1440 1445 1450 1455 1459 1463 1466 1471 1476 1477 1481 1484 1485 1487 1488 1489 1489 1490
1425 1424 1424 1424 1424 1423 1423 1422 1423 1426 1429 1430 1430 1431 1433 1434 1435 1434 1434 1433 1434 1435 1436 1436 1438 1442 1446 1450 1455 1459 1464 1467 1470 1475 1479 1482 1485 1487 1489 1489 1490 1491 1491
1417 1417 1417 1418 1418 1418 1417 1417 1417 1418 1422 1425 1426 1427 1429 1432 1433 1434 1435 1435 1436 1438 1440 1442 1443 1446 1450 1454 1458 1462 1466 1469 1473 1477 1479 1482 1486 1488 1489 1490 1491 1491 1492
1410 1410 1410 1411 1412 1412 1411 1412 1411 1412 1416 1421 1423 1424 1426 1429 1432 1434 1435 1436 1438 1441 1444 1446 1448 1450 1453 1457 1460 1464 1467 1470 1474 1477 1480 1482 1484 1486 1489 1490 1490 1491 1492
1402 1403 1403 1405 1406 1406 1406 1407 1407 1408 1412 1416 1419 1421 1423 1426 1430 1433 1435 1436 1439 1442 1445 1448 1451 1454 1457 1459 1462 1465 1467 1470 1473 1477 1480 1481 1483 1485 1488 1489 1490 1491 1491